Showing default

SATELIOT_1, 60550

Orbit data source: Space-Track

SATELIOT_1, 60550 is a payload satellite owned by Sateliot (ES) in SSO that was launched on Fri, 16 Aug 2024 UTC via an FALCON 9 launch vehicle from the Air Force Western Test Range (AFWTR). Payload-class satellites include a variety of spacecraft equipped with specific instruments for various scientific and technological missions. These include communications satellites like Starlink; space stations such as the ISS; scientific satellites like the Hubble; Earth observation satellites from companies like Planet Labs, Umbra, and HawkEye 360; GPS; miniature CubeSats for education and research; and military/defense satellites.

Loading next visibility...
Identifier
60550, 2024-149CL
Orbit
SSO
Country
Flag of ESES / SPN
Related business
Manufacturer
Endurosat
Mission
Operational Commercial Communications
Bus & Motor
CUBESAT 6U, Unknown motor
Mass
7.407 kg wet, 7.407 kg dry
Launch date (UTC)
2024-08-16 (1 year ago)
Launch vehicle
FALCON 9
Launch site
Air Force Western Test Range (AFWTR)
Object type
Payload
Rocket body
Debris
Shape & HBR
Box + 2 Pan, 0.2 m
Radar Cross Section
0.092 m², Medium (>0.1 m² and < 1m²)

Expand to show TLE details & history
Last TLE update: 5 hours ago

TLE from 5 hours ago
0 SATELIOT_1
1 60550U 24149CL  26035.14589109  .00002778  00000-0  24369-3 0  9990
2 60550  97.6860 113.2575 0007377 152.7394 207.4217 14.97424286 80157
Epoch: 2026-02-04T03:30Z
TLE epoch observation values (Epoch: 2026-02-04T03:30:04.990Z)
Latitude
0.00004°
Longitude
-73.57996°
Altitude
582.464 km
Speed
7.567 km/s
True Right ascension
07h 33m 01s
True Declination
0° 00' 00"
Sunlit
Object was in full shadow at epoch
Visualization orbit readout
Latitude
Unknown
Longitude
Unknown
Altitude
Unknown
Speed
Unknown
Apparent Right ascension
Unknown
Apparent Declination
Unknown
Sunlit
N/A
Visualization observer readout
Local Sidereal Time
10:41:16
Azimuth
Unknown
Elevation
Unknown
Doppler factor
Unknown
Orbital elements
Apogee altitude
576.993 km
Perigee altitude
566.739 km
Semi-major axis
6,950.003 km
Eccentricity
0.00074
Inclination
97.686°
RAAN
113.2575°
Arg. of periapsis
152.7394°
True anomaly
207.3828°
Mean anomaly
207.4217°
Eccentric anomaly
207.40225°
Mean motion
3.74598 °/min
Orbital period
96.1 mins
BSTAR
0.00024369
Loading maneuver chart data...
Computing Atmospheric mass density...
Loading historical data...
Loading historical data...
Loading historical data...
Loading historical data...
Loading historical data...
Loading historical data...
Loading historical data...

Documentation

Showing up to 5 results
|